DECAYED

STARLINK-4154, 53133 (Decayed)

Orbit data source: Space-Track

STARLINK-4154, 53133 was a payload satellite owned by SpaceX/Seattle (US) in LEO that was launched on Sun, 17 Jul 2022 UTC via an FALCON 9 launch vehicle from the Air Force Eastern Test Range (AFETR). Payload-class satellites include a variety of spacecraft equipped with specific instruments for various scientific and technological missions. These include communications satellites like Starlink; space stations such as the ISS; scientific satellites like the Hubble; Earth observation satellites from companies like Planet Labs, Umbra, and HawkEye 360; GPS; miniature CubeSats for education and research; and military/defense satellites.

Not visible in the next 10 days
Identifier
53133, 2022-083B
Orbit
Decayed
Country
Flag of USUS
Related business
Manufacturer
SpaceX/Seattle
Mission
Decayed Commercial Communications
Bus & Motor
STARLINK, Unknown motor
Mass
297 kg wet, ~275 kg dry
Launch date (UTC)
2022-07-17 (4 years ago)
Launch vehicle
FALCON 9
Launch site
Air Force Eastern Test Range (AFETR)
Object type
Payload
Rocket body
Debris
Shape & HBR
Box + 1 Pan, 10.1 m
Radar Cross Section
13.562 m², Large (>1 m²)

Expand to show TLE details & history
Last TLE update: 1 year ago

TLE from 1 year ago
0 STARLINK-4154
1 53133U 22083B   24364.39611288  .07591298  12492-4  28878-3 0  9996
2 53133  53.2047 306.2406 0004892 296.4893 156.5037 16.43894702136431
Epoch: 2024-12-29T09:30Z
TLE epoch observation values (Epoch: 2024-12-29T09:30:24.152Z)
Latitude
53.25724°
Longitude
160.33873°
Altitude
164.904 km
Speed
7.812 km/s
True Right ascension
02h 45m 05s
True Declination
53° 04' 38"
Sunlit
Object was in full shadow at epoch
Visualization orbit readout
Latitude
Unknown
Longitude
Unknown
Altitude
Unknown
Speed
Unknown
Apparent Right ascension
Unknown
Apparent Declination
Unknown
Sunlit
N/A
Visualization observer readout
Local Sidereal Time
21:27:13
Azimuth
Unknown
Elevation
Unknown
Doppler factor
Unknown
Orbital elements
Apogee altitude
158.92 km
Perigee altitude
152.527 km
Semi-major axis
6,533.861 km
Eccentricity
0.00049
Inclination
53.2047°
RAAN
306.2406°
Arg. of periapsis
296.4893°
True anomaly
156.52604°
Mean anomaly
156.5037°
Eccentric anomaly
156.51487°
Mean motion
4.10949 °/min
Orbital period
87.6 mins
BSTAR
0.00028878
Loading maneuver chart data...
Computing Atmospheric mass density...
Loading historical data...
Loading historical data...
Loading historical data...
Loading historical data...
Loading historical data...
Loading historical data...
Loading historical data...

Documentation

Showing up to 5 results
|